GLO9811 SBCF-SBGL

Flight info

Callsign GLO9811
Flight time 0h 36m
Altitude 28000
Route MAVGU
Aircraft B737/M-SDFGIKLORWXY/LB1

Departure

Time 2026-04-29 02:33
Airport Tancredo Neves International Airport (SBCF)

Arrival

Time 2026-04-29 03:09
Airport Rio Galeão – Tom Jobim International Airport (SBGL)
Time Latitude Longitude Altitude Speed Heading
2026-04-29 02:11 -19.62989 -43.96897 2752 ft 0 kts 229°
2026-04-29 02:25 -19.62982 -43.96888 2752 ft 4 kts 233°
2026-04-29 02:25 -19.62969 -43.96863 2766 ft 4 kts 260°
2026-04-29 02:26 -19.62971 -43.96839 2813 ft 4 kts 311°
2026-04-29 02:26 -19.62978 -43.96831 2818 ft 1 kts 319°
2026-04-29 02:28 -19.62977 -43.96832 2816 ft 1 kts 319°
2026-04-29 02:28 -19.62955 -43.96853 2782 ft 8 kts 319°
2026-04-29 02:28 -19.62903 -43.96899 2827 ft 10 kts 319°
2026-04-29 02:28 -19.62852 -43.96948 2828 ft 10 kts 320°
2026-04-29 02:29 -19.62799 -43.96995 2828 ft 10 kts 321°
2026-04-29 02:29 -19.62792 -43.97045 2828 ft 7 kts 242°
2026-04-29 02:29 -19.62825 -43.97087 2828 ft 7 kts 229°
2026-04-29 02:29 -19.62857 -43.97126 2828 ft 7 kts 229°
2026-04-29 02:30 -19.62889 -43.97164 2827 ft 7 kts 229°
2026-04-29 02:30 -19.62894 -43.97170 2826 ft 0 kts 229°
2026-04-29 02:31 -19.62897 -43.97174 2826 ft 2 kts 229°
2026-04-29 02:32 -19.62914 -43.97194 2828 ft 4 kts 229°
2026-04-29 02:32 -19.62934 -43.97217 2828 ft 5 kts 225°
2026-04-29 02:32 -19.62977 -43.97227 2832 ft 10 kts 163°
2026-04-29 02:32 -19.63111 -43.97116 2828 ft 56 kts 139°
2026-04-29 02:33 -19.63583 -43.96678 2826 ft 124 kts 139°
2026-04-29 02:33 -19.64379 -43.95942 2906 ft 172 kts 140°
2026-04-29 02:33 -19.65304 -43.95097 3535 ft 180 kts 137°
2026-04-29 02:33 -19.66260 -43.94192 4188 ft 192 kts 135°
2026-04-29 02:34 -19.67346 -43.93179 4428 ft 222 kts 135°
2026-04-29 02:34 -19.68586 -43.92031 4646 ft 252 kts 136°
2026-04-29 02:34 -19.69955 -43.90767 5196 ft 266 kts 136°
2026-04-29 02:34 -19.71363 -43.89470 6056 ft 270 kts 136°
2026-04-29 02:35 -19.72785 -43.88160 6991 ft 271 kts 137°
2026-04-29 02:35 -19.74200 -43.86854 7903 ft 275 kts 137°
2026-04-29 02:35 -19.75648 -43.85514 8845 ft 278 kts 138°
2026-04-29 02:35 -19.77119 -43.84152 9839 ft 282 kts 138°
2026-04-29 02:36 -19.78613 -43.82768 10635 ft 292 kts 138°
2026-04-29 02:36 -19.80222 -43.81275 10903 ft 321 kts 138°
2026-04-29 02:36 -19.82033 -43.79792 11497 ft 335 kts 145°
2026-04-29 02:36 -19.84028 -43.78460 12246 ft 343 kts 147°
2026-04-29 02:37 -19.85387 -43.77579 12758 ft 347 kts 147°
2026-04-29 02:37 -19.88165 -43.75742 13826 ft 356 kts 147°
2026-04-29 02:37 -19.90264 -43.74352 14506 ft 363 kts 150°
2026-04-29 02:37 -19.92660 -43.73467 15212 ft 370 kts 172°
2026-04-29 02:38 -19.95234 -43.73521 15985 ft 373 kts 191°
2026-04-29 02:38 -19.97786 -43.74094 16756 ft 377 kts 193°
2026-04-29 02:38 -20.00371 -43.74685 17465 ft 383 kts 193°
2026-04-29 02:38 -20.02996 -43.75278 18186 ft 388 kts 193°
2026-04-29 02:39 -20.05659 -43.75869 18848 ft 393 kts 193°
2026-04-29 02:39 -20.08354 -43.76457 19488 ft 397 kts 193°
2026-04-29 02:39 -20.11084 -43.77046 20128 ft 401 kts 193°
2026-04-29 02:39 -20.13835 -43.77635 20764 ft 405 kts 193°
2026-04-29 02:40 -20.16615 -43.78229 21377 ft 410 kts 193°
2026-04-29 02:40 -20.19426 -43.78829 22011 ft 414 kts 194°
2026-04-29 02:40 -20.22233 -43.79428 22632 ft 418 kts 194°
2026-04-29 02:40 -20.25102 -43.80041 23228 ft 422 kts 194°
2026-04-29 02:41 -20.28000 -43.80660 23780 ft 426 kts 194°
2026-04-29 02:41 -20.30921 -43.81285 24298 ft 429 kts 194°
2026-04-29 02:41 -20.33857 -43.81912 24859 ft 430 kts 194°
2026-04-29 02:41 -20.36792 -43.82539 25411 ft 431 kts 194°
2026-04-29 02:42 -20.39747 -43.83172 25922 ft 434 kts 194°
2026-04-29 02:42 -20.42726 -43.83810 26431 ft 437 kts 194°
2026-04-29 02:42 -20.45712 -43.84450 26942 ft 439 kts 194°
2026-04-29 02:42 -20.48710 -43.85092 27447 ft 441 kts 195°
2026-04-29 02:43 -20.51725 -43.85738 27940 ft 443 kts 195°
2026-04-29 02:43 -20.54771 -43.86392 28114 ft 450 kts 195°
2026-04-29 02:43 -20.57835 -43.87133 28121 ft 451 kts 198°
2026-04-29 02:44 -20.63816 -43.89011 28119 ft 445 kts 201°
2026-04-29 02:44 -20.69707 -43.90963 28116 ft 447 kts 201°
2026-04-29 02:45 -20.75672 -43.92883 28121 ft 448 kts 200°
2026-04-29 02:45 -20.81657 -43.94778 28118 ft 448 kts 200°
2026-04-29 02:46 -20.87634 -43.96671 28118 ft 447 kts 200°
2026-04-29 02:46 -20.93565 -43.98552 28119 ft 447 kts 200°
2026-04-29 02:47 -20.99527 -44.00431 28129 ft 446 kts 200°
2026-04-29 02:47 -21.05489 -44.02307 28122 ft 446 kts 201°
2026-04-29 02:48 -21.11442 -44.04183 28120 ft 446 kts 201°
2026-04-29 02:48 -21.17403 -44.06064 28120 ft 446 kts 201°
2026-04-29 02:49 -21.23324 -44.07936 28122 ft 446 kts 201°
2026-04-29 02:49 -21.29292 -44.09823 28118 ft 447 kts 201°
2026-04-29 02:50 -21.35267 -44.11714 28118 ft 447 kts 201°
2026-04-29 02:50 -21.41236 -44.13602 28114 ft 447 kts 200°
2026-04-29 02:50 -21.44292 -44.14086 28107 ft 457 kts 182°
2026-04-29 02:51 -21.47449 -44.13559 28121 ft 464 kts 165°
2026-04-29 02:51 -21.50375 -44.12068 28138 ft 469 kts 151°
2026-04-29 02:51 -21.53144 -44.10193 28126 ft 470 kts 149°
2026-04-29 02:52 -21.58715 -44.06515 28115 ft 469 kts 154°
2026-04-29 02:52 -21.64576 -44.03481 28129 ft 467 kts 158°
2026-04-29 02:52 -21.67535 -44.02039 27980 ft 468 kts 158°
2026-04-29 02:53 -21.70502 -44.00571 27454 ft 466 kts 158°
2026-04-29 02:53 -21.73427 -43.99093 26841 ft 463 kts 157°
2026-04-29 02:53 -21.76323 -43.97607 26242 ft 458 kts 157°
2026-04-29 02:53 -21.79144 -43.96150 25650 ft 453 kts 157°
2026-04-29 02:54 -21.81993 -43.94680 25019 ft 450 kts 157°
2026-04-29 02:54 -21.84806 -43.93229 24411 ft 448 kts 156°
2026-04-29 02:54 -21.87615 -43.91782 23803 ft 445 kts 156°
2026-04-29 02:54 -21.90409 -43.90342 23091 ft 444 kts 156°
2026-04-29 02:55 -21.93183 -43.88911 22444 ft 440 kts 156°
2026-04-29 02:55 -21.95923 -43.87497 21830 ft 435 kts 156°
2026-04-29 02:55 -21.98643 -43.86093 21220 ft 431 kts 156°
2026-04-29 02:55 -22.01342 -43.84698 20614 ft 428 kts 156°
2026-04-29 02:56 -22.04016 -43.83317 19996 ft 424 kts 155°
2026-04-29 02:56 -22.06673 -43.81943 19378 ft 421 kts 155°
2026-04-29 02:56 -22.09275 -43.80597 18784 ft 418 kts 155°
2026-04-29 02:56 -22.11890 -43.79244 18137 ft 416 kts 155°
2026-04-29 02:57 -22.14487 -43.77899 17493 ft 411 kts 155°
2026-04-29 02:57 -22.17054 -43.76569 16865 ft 406 kts 155°
2026-04-29 02:57 -22.19593 -43.75254 16273 ft 401 kts 155°
2026-04-29 02:57 -22.22092 -43.73959 15674 ft 396 kts 155°
2026-04-29 02:58 -22.23730 -43.73109 15285 ft 392 kts 155°
2026-04-29 02:58 -22.26962 -43.71432 14524 ft 386 kts 154°
2026-04-29 02:58 -22.29371 -43.70182 13926 ft 382 kts 154°
2026-04-29 02:58 -22.30985 -43.69345 13491 ft 379 kts 154°
2026-04-29 02:59 -22.34058 -43.67749 13016 ft 363 kts 154°
2026-04-29 02:59 -22.35587 -43.66955 12640 ft 356 kts 154°
2026-04-29 02:59 -22.37784 -43.65813 12087 ft 346 kts 154°
2026-04-29 02:59 -22.39903 -43.64712 11541 ft 338 kts 154°
2026-04-29 03:00 -22.41997 -43.63623 10985 ft 331 kts 154°
2026-04-29 03:00 -22.44058 -43.62551 10500 ft 323 kts 154°
2026-04-29 03:00 -22.46026 -43.61527 10311 ft 307 kts 154°
2026-04-29 03:00 -22.47918 -43.60542 10151 ft 297 kts 154°
2026-04-29 03:01 -22.49779 -43.59573 9707 ft 297 kts 154°
2026-04-29 03:01 -22.51622 -43.58613 9283 ft 291 kts 154°
2026-04-29 03:01 -22.53434 -43.57669 8878 ft 286 kts 153°
2026-04-29 03:01 -22.55224 -43.56737 8494 ft 285 kts 154°
2026-04-29 03:02 -22.57008 -43.55806 8069 ft 282 kts 154°
2026-04-29 03:02 -22.58752 -43.54895 7661 ft 275 kts 154°
2026-04-29 03:02 -22.60457 -43.54003 7314 ft 270 kts 153°
2026-04-29 03:02 -22.62121 -43.53132 6976 ft 260 kts 153°
2026-04-29 03:03 -22.63719 -43.52277 6588 ft 257 kts 148°
2026-04-29 03:03 -22.65000 -43.50946 6013 ft 261 kts 123°
2026-04-29 03:03 -22.66050 -43.49334 5472 ft 262 kts 123°
2026-04-29 03:03 -22.67086 -43.47761 4954 ft 255 kts 124°
2026-04-29 03:04 -22.68117 -43.46211 4469 ft 247 kts 124°
2026-04-29 03:04 -22.69093 -43.44736 4123 ft 234 kts 124°
2026-04-29 03:04 -22.70015 -43.43340 3822 ft 222 kts 124°
2026-04-29 03:04 -22.70890 -43.42017 3542 ft 209 kts 124°
2026-04-29 03:05 -22.71715 -43.40770 3272 ft 198 kts 124°
2026-04-29 03:05 -22.72495 -43.39590 3000 ft 188 kts 124°
2026-04-29 03:05 -22.73230 -43.38478 2769 ft 180 kts 124°
2026-04-29 03:05 -22.73949 -43.37392 2522 ft 174 kts 124°
2026-04-29 03:06 -22.74640 -43.36346 2290 ft 168 kts 124°
2026-04-29 03:06 -22.75308 -43.35338 2068 ft 160 kts 124°
2026-04-29 03:06 -22.75923 -43.34409 1897 ft 143 kts 124°
2026-04-29 03:06 -22.76488 -43.33555 1694 ft 137 kts 124°
2026-04-29 03:07 -22.77046 -43.32710 1506 ft 138 kts 125°
2026-04-29 03:07 -22.77607 -43.31863 1324 ft 138 kts 125°
2026-04-29 03:07 -22.78168 -43.31020 1098 ft 137 kts 126°
2026-04-29 03:07 -22.78734 -43.30182 891 ft 138 kts 126°
2026-04-29 03:08 -22.79291 -43.29327 704 ft 139 kts 125°
2026-04-29 03:08 -22.79845 -43.28475 518 ft 138 kts 126°
2026-04-29 03:08 -22.80405 -43.27628 353 ft 139 kts 125°
2026-04-29 03:08 -22.80962 -43.26786 169 ft 136 kts 126°
2026-04-29 03:09 -22.81500 -43.25975 35 ft 130 kts 126°
2026-04-29 03:09 -22.81975 -43.25262 28 ft 95 kts 126°
2026-04-29 03:09 -22.82227 -43.24884 19 ft 27 kts 126°
2026-04-29 03:09 -22.82324 -43.24715 18 ft 25 kts 111°
2026-04-29 03:10 -22.82358 -43.24555 18 ft 19 kts 97°
2026-04-29 03:10 -22.82363 -43.24472 18 ft 8 kts 66°
2026-04-29 03:10 -22.82317 -43.24479 18 ft 8 kts 320°
2026-04-29 03:10 -22.82281 -43.24528 19 ft 9 kts 304°
2026-04-29 03:11 -22.82237 -43.24595 19 ft 13 kts 305°
2026-04-29 03:11 -22.82170 -43.24694 18 ft 20 kts 306°
2026-04-29 03:11 -22.82088 -43.24818 21 ft 20 kts 305°
2026-04-29 03:11 -22.82009 -43.24940 23 ft 19 kts 306°
2026-04-29 03:12 -22.81931 -43.25056 26 ft 19 kts 305°
2026-04-29 03:12 -22.81856 -43.25169 24 ft 18 kts 306°
2026-04-29 03:12 -22.81788 -43.25257 21 ft 10 kts 338°
2026-04-29 03:12 -22.81726 -43.25226 22 ft 11 kts 34°
2026-04-29 03:13 -22.81644 -43.25164 22 ft 18 kts 34°
2026-04-29 03:13 -22.81533 -43.25078 21 ft 19 kts 36°
2026-04-29 03:13 -22.81489 -43.24991 20 ft 13 kts 97°
2026-04-29 03:13 -22.81452 -43.24911 21 ft 13 kts 27°
2026-04-29 03:14 -22.81366 -43.24902 21 ft 12 kts
2026-04-29 03:14 -22.81323 -43.24877 21 ft 6 kts 100°
2026-04-29 03:14 -22.81333 -43.24839 22 ft 3 kts 98°
2026-04-29 03:14 -22.81333 -43.24837 22 ft 0 kts 99°